Location: Katowice
(50.2611°N, 19.0242°E)
Time: 16:33:27
(UTC+02:00)

A-11 Canister half - Visible Passes

Search period start: 16 July 2019 00:00
Search period end: 26 July 2019 00:00
Orbit: 1515 x 1685 km, 47.2° (Epoch: 15 July)

Date Brightness Start Highest point End Pass type
(mag) Time Alt. Az. Time Alt. Az. Time Alt. Az.
16 Jul 10.8 02:27:29 10° SSE 02:31:31 13° ESE 02:35:33 10° E visible
17 Jul 10.8 02:05:33 10° SE 02:08:44 12° ESE 02:11:55 10° ESE visible
17 Jul 10.0 04:02:23 10° SSW 04:11:25 39° SE 04:20:28 10° ENE visible
18 Jul 10.9 01:44:03 10° SE 01:45:57 11° ESE 01:47:52 10° ESE visible
18 Jul 10.0 03:39:39 10° SSW 03:48:33 37° SE 03:57:28 10° E visible
19 Jul 10.0 03:17:34 12° SSW 03:25:41 35° SE 03:34:29 10° E visible
20 Jul 10.0 02:55:44 15° SSW 03:02:49 34° SE 03:11:29 10° E visible
21 Jul 10.0 02:33:51 17° S 02:39:58 32° SE 02:48:29 10° E visible
22 Jul 10.0 02:11:55 19° S 02:17:08 30° SE 02:25:28 10° E visible
22 Jul 9.4 04:10:57 10° SW 04:20:51 62° SSE 04:30:48 10° E visible
23 Jul 10.0 01:49:57 21° S 01:54:17 29° SE 02:02:25 10° E visible
23 Jul 9.4 03:48:07 10° SW 03:57:56 60° SSE 04:07:51 10° E visible
24 Jul 10.0 01:27:56 22° SSE 01:31:27 27° SE 01:39:23 10° E visible
24 Jul 9.4 03:26:06 13° SW 03:35:01 59° SSE 03:44:54 10° E visible
25 Jul 10.0 01:05:52 23° SSE 01:08:37 25° SE 01:16:19 10° E visible
25 Jul 9.3 03:04:02 16° SW 03:12:06 57° SSE 03:21:57 10° E visible
